Location: Unspecified
(50.7693°N, 0.0000°E)
Time: 08:32:44
(UTC+00:00)

A-11 Canister half - Pass Details

Date: 25 June 2019
Orbit: 1526 x 1683 km, 47.3° (Epoch: 16 July)

Event Time Altitude Azimuth Distance (km) Brightness Sun altitude
Rises 07:52:09 0° 277° (W) 4,708 11.0 35.1°
Reaches altitude 10° 07:55:15 10° 274° (W) 3,712 10.6 35.6°
Maximum altitude 08:04:25 65° 196° (SSW) 1,657 9.7 37.0°
Drops below altitude 10° 08:13:34 10° 118° (ESE) 3,704 12.1 38.4°
Sets 08:16:39 0° 115° (ESE) 4,696 12.4 38.9°
